Location: Austin
(30.3000°N, 97.7500°W)
Time: 10:20:13
(UTC-05:00)

SL-8 Rocket - Pass Details

Date: 26 May 2023
Orbit: 957 x 990 km, 82.9° (Epoch: 31 May)

Event Time Altitude Azimuth Distance (km) Brightness Sun altitude
Exits shadow 23:29:32 70° 274° (W) 1,014 4.0 -31.1°
Maximum altitude 23:29:33 70° 276° (W) 1,014 4.0 -31.1°
Drops below altitude 10° 23:35:42 10° 0° (N) 2,699 7.0 -31.8°
Sets 23:38:14 0° 3° (N) 3,652 7.8 -32.1°
